Terminal Aerodrome Forecast
Issued by NWS

Home | Current Version | Previous Version | Text Only | Print | Product List | Glossary On
Versions: 1 2 3 4 5 6 7 8 9 10 11 12 13 14 15 16 17 18 19 20 21 22 23 24 25 26 27 28 29 30 31 32 33 34 35 36 37 38 39 40 41
000
FTAK31 PANC 280541
TAFASN
TAF
PASN 280541Z 2806/2906 01025G32KT P6SM VCSH BKN015 OVC040
     FM280900 01020G30KT 3SM -SN BLSN OVC006
     FM281200 01020G30KT 2SM -SN BLSN SCT003 OVC006
     FM282200 01015G25KT 3SM -SHSN BLSN BKN008 OVC015=

USA.gov is the U.S. government's official web portal to all federal, state and local government web resources and services.